368  
NZUS01 KABQ 120610  
RWRABQ  
NEW MEXICO REGIONAL WEATHER ROUNDUP  
NATIONAL WEATHER SERVICE ALBUQUERQUE NM  
1200 AM MDT FRI AUG 12 2022  
 
-----NORTHERN NEW MEXICO AND NEARBY AREAS-----  
 
 
CITY SKY/WX TMP DP RH WIND PRES REMARKS
 
ALBUQUERQUE MOCLDY 70 58 65 NW3 30.32R  
6HR MIN TEMP: 70; 6HR MAX TEMP: 74;  
 
BELEN FAIR 61 57 86 NW6 30.31S  
6HR MIN TEMP: 61; 6HR MAX TEMP: 73;  
 
SOCORRO FAIR 63 60 88 NW5 30.28S  
6HR MIN TEMP: 63; 6HR MAX TEMP: 70;  
 
 
CITY SKY/WX TMP DP RH WIND PRES REMARKS
 
SANTA FE CLEAR 61 56 83 N5 30.39R  
6HR MIN TEMP: 61; 6HR MAX TEMP: 79;  
 
LOS ALAMOS CLEAR 64 51 62 S6 30.45R  
6HR MIN TEMP: 60; 6HR MAX TEMP: 66;  
 
TAOS PTCLDY 62 51 67 CALM 30.46R  
6HR MIN TEMP: 61; 6HR MAX TEMP: 83;  
 
ANGEL FIRE FAIR 49 46 88 CALM 30.54S  
6HR MIN TEMP: 48; 6HR MAX TEMP: 73;  
 
FARMINGTON MOCLDY 72 51 47 E5 30.29R  
6HR MIN TEMP: 72; 6HR MAX TEMP: 89;  
 
GRANTS PTCLDY 56 55 94 CALM 30.40F  
6HR MIN TEMP: 55; 6HR MAX TEMP: 71;  
 
GALLUP MOCLDY 59 56 89 SW3 30.37F  
6HR MIN TEMP: 59; 6HR MAX TEMP: 68;  
 
FLAGSTAFF PTCLDY 61 54 77 CALM 30.39F  
6HR MIN TEMP: 61; 6HR MAX TEMP: 75;  
 
DURANGO PTCLDY 66 48 52 N6 30.39S  
6HR MIN TEMP: 66; 6HR MAX TEMP: 87;  
 
 
CITY SKY/WX TMP DP RH WIND PRES REMARKS
 
ALAMOSA CLEAR 63 51 65 S10 30.40R  
6HR MIN TEMP: 63; 6HR MAX TEMP: 81;  
 
DENVER MOCLDY 77 46 33 S17 30.19S  
6HR MIN TEMP: 77; 6HR MAX TEMP: 93;  
 
CLAYTON CLEAR 65 55 70 S8 30.29R  
6HR MIN TEMP: 65; 6HR MAX TEMP: 84;  
 
RATON CLEAR 61 47 59 W8 30.37R  
6HR MIN TEMP: 61; 6HR MAX TEMP: 80;  
 
LAS VEGAS PTCLDY 60 52 74 S7 30.43S  
6HR MIN TEMP: 59; 6HR MAX TEMP: 78;  
 
CLINES CORNERS NOT AVBL  
SANTA ROSA FAIR 70 56 62 SW5 30.27R  
6HR MIN TEMP: 69; 6HR MAX TEMP: 76;  
 
TUCUMCARI CLEAR 74 58 57 S3 30.20S  
6HR MIN TEMP: 74; 6HR MAX TEMP: 92;  
 
CLOVIS (AFB) CLEAR 72 58 62 W6 30.24R  
6HR MIN TEMP: 71; 6HR MAX TEMP: 87;  
 
CLOVIS CLEAR 73 52 47 E10 30.25S  
6HR MIN TEMP: 72; 6HR MAX TEMP: 89;  
 
AMARILLO CLEAR 71 53 52 SE10 30.20S  
6HR MIN TEMP: 71; 6HR MAX TEMP: 88;  
 
-----SOUTHERN NEW MEXICO AND NEARBY AREAS-----  
 
 
CITY SKY/WX TMP DP RH WIND PRES REMARKS
 
T OR C MOCLDY 71 58 63 NE3 30.25F  
6HR MIN TEMP: 70; 6HR MAX TEMP: 82;  
 
DEMING PTCLDY 69 59 70 NE8 30.23R  
6HR MIN TEMP: 69; 6HR MAX TEMP: 80;  
 
TUCSON MOCLDY 83 67 58 S8 30.06S  
6HR MIN TEMP: 82; 6HR MAX TEMP: 97;  
 
EL PASO MOCLDY 74 57 55 N5 30.19S  
6HR MIN TEMP: 73; 6HR MAX TEMP: 80;  
 
LAS CRUCES PTCLDY 69 56 62 CALM 30.25R  
6HR MIN TEMP: 69; 6HR MAX TEMP: 78;  
 
 
CITY SKY/WX TMP DP RH WIND PRES REMARKS
 
ALAMOGORDO CLEAR 66 61 84 NE6 30.25S  
6HR MIN TEMP: 66; 6HR MAX TEMP: 80;  
 
RUIDOSO N/A 59 55 88 NW5 30.44R  
ROSWELL CLEAR 72 65 78 SW5 30.19F  
6HR MIN TEMP: 72; 6HR MAX TEMP: 84;  
 
CARLSBAD PTCLDY 69 65 86 NE7 30.16S  
6HR MIN TEMP: 69; 6HR MAX TEMP: 76; 6HR PCP: TRACE;  
 
HOBBS CLOUDY 70 66 88 SW5G13 30.19R  
 
CLICK HERE TO GO TO PREVIOUS BULLETINS.

The Nexlab NM Page Main Text Page